Lid_Strength_Index
15 15 16 16 17 17 18 18 18 18 18 18 18 19 19 19 19 20 20 20 20 20 20 20 19 19 20 20 20 20 20 20 22 20 19 18 18 17 16 15 14 14 14
15 16 16 17 18 18 18 19 18 19 19 19 19 19 19 19 20 19 20 20 20 20 20 20 20 19 20 20 20 20 20 20 20 21 19 19 18 16 16 16 14 13 13
16 16 17 18 18 19 19 19 19 19 19 19 19 19 19 19 19 19 19 20 20 20 19 19 19 19 20 20 20 20 20 18 19 20 19 17 17 15 15 14 14 14 12
16 17 18 18 18 18 19 19 19 19 19 19 19 19 19 19 19 19 19 20 20 20 19 19 19 19 19 19 19 19 19 19 19 19 18 17 16 14 14 15 16 14 13
17 17 17 18 18 18 19 19 19 19 19 19 20 20 20 19 19 19 19 19 19 20 19 18 18 18 16 17 18 19 18 19 18 18 17 16 15 15 15 14 15 13 13
17 17 17 18 18 19 19 19 19 20 20 19 20 20 20 19 16 15 18 19 19 19 19 19 18 18 17 15 14 14 15 18 21 20 17 16 14 14 14 14 13 15 16
17 17 18 18 18 18 19 19 19 20 19 20 20 19 19 19 14 14 15 18 19 19 19 18 18 17 18 18 16 14 13 11 10 12 15 14 14 13 12 12 13 14 14
17 17 17 17 18 18 19 19 19 19 20 20 19 18 18 18 14 13 13 17 18 18 18 18 17 17 17 17 17 17 15 14 13 12 12 12 11 10 10 11 12 13 13
17 17 17 17 17 18 19 19 19 19 19 19 18 18 18 18 14 13 13 16 17 17 17 17 17 17 16 13 15 16 15 13 10 8 8 8 8 8 8 11 16 16 16
16 16 16 16 16 17 17 18 18 17 17 17 17 17 17 17 14 13 13 16 17 17 17 16 15 16 14 12 13 16 15 14 13 14 14 13 11 12 10 11 12 15 15
16 16 16 16 16 16 17 17 17 17 17 18 18 17 18 17 17 13 12 15 16 17 17 17 16 13 11 10 9 12 13 11 12 15 17 16 15 14 13 12 11 12 15
17 17 16 16 15 16 16 16 16 16 17 17 18 18 18 18 17 14 12 11 13 17 17 16 16 12 10 9 9 8 8 7 16 22 21 17 16 14 13 12 12 12 12
15 15 15 15 15 15 15 16 16 16 16 17 18 18 18 19 18 14 13 12 11 12 14 14 12 10 9 9 8 7 9 14 19 21 19 16 15 14 13 13 13 13 13
14 15 15 15 15 14 14 14 15 17 17 17 18 17 17 20 20 19 17 14 12 11 10 12 10 9 9 10 13 11 13 16 17 17 16 15 14 16 16 15 16 15 16
15 16 15 15 15 16 16 16 16 16 15 16 17 17 20 20 19 16 16 18 17 15 17 22 20 17 15 15 15 16 15 15 15 15 16 17 16 16 16 15 16 17 18
19 19 18 19 19 19 20 22 17 17 14 14 15 17 20 16 14 12 11 11 10 10 14 18 17 15 15 14 14 14 15 15 15 16 17 18 17 17 17 17 17 19 19
19 20 20 21 20 21 21 20 22 19 14 13 13 13 14 16 12 11 11 10 9 8 11 11 14 15 16 15 16 15 16 16 15 17 16 16 17 17 19 20 19 19 20
22 21 22 22 22 22 21 22 21 20 20 23 15 13 11 11 11 11 11 13 18 17 19 20 20 19 18 18 19 18 17 17 17 17 17 20 24 23 24 22 21 22 21
24 25 25 26 26 25 25 25 26 26 26 27 25 18 19 14 14 13 15 23 25 24 22 22 22 23 22 23 21 23 24 24 25 26 27 27 26 27 26 23 21 21 20
27 25 26 26 26 26 26 26 27 28 28 28 27 27 26 22 23 24 24 24 28 29 29 29 29 31 32 32 31 30 30 31 30 30 27 25 24 23 23 25 22 22 23
27 27 26 27 28 28 28 27 26 25 26 28 26 22 18 26 27 28 29 30 30 32 32 33 33 34 34 33 33 32 32 28 30 27 26 23 23 25 23 23 22 23 22
28 29 28 28 26 26 28 26 26 25 25 24 27 27 17 27 29 30 33 34 34 35 33 34 33 32 30 31 31 32 30 28 28 24 21 22 24 25 25 24 26 23 22
27 26 27 29 27 25 27 29 27 26 28 28 28 28 29 31 33 35 35 34 36 34 34 37 34 31 31 30 30 27 24 25 26 24 22 24 25 25 27 29 30 27 23
28 27 27 28 27 27 27 29 28 27 28 29 30 31 32 34 35 35 34 34 35 33 34 33 32 30 29 28 29 27 24 25 25 23 23 24 24 25 29 35 30 27 24
28 27 27 28 29 28 28 29 28 30 31 31 33 34 34 35 34 34 33 33 32 31 30 30 30 30 28 27 27 28 27 21 21 22 24 25 26 30 36 35 33 31 27
31 29 30 30 31 32 32 31 32 32 33 32 32 33 33 31 30 30 30 30 29 28 28 29 28 28 27 27 26 24 24 20 21 21 23 27 30 33 34 34 35 32 28